• In Czech Republic
  • List of Countries
  • For 7 days
  • Water Temperature
  • Satellite Maps
  • Weather Map
  • Weather Widgets
  • user-avatar
    Login

    Hourly Weather Thimphu

    Today, 19 October, Thursday

    Time Temperature Precipitation Wind Pressure Humidity
    00:00 +7°C° 0 mm 1 mps 525 mmHg 74%
    01:00 +6°C° 0 mm 2 mps 525 mmHg 73%
    02:00 +6°C° 0 mm 2 mps 525 mmHg 72%
    03:00 +6°C° 0 mm 2 mps 525 mmHg 71%
    04:00 +6°C° 0 mm 2 mps 525 mmHg 69%
    05:00 +5°C° 0 mm 2 mps 525 mmHg 67%
    06:00 +6°C° 0 mm 2 mps 525 mmHg 63%
    07:00 +9°C° 0 mm 2 mps 527 mmHg 54%
    08:00 +13°C° 0 mm 1 mps 529 mmHg 44%
    09:00 +16°C° 0 mm 1 mps 531 mmHg 35%
    10:00 +17°C° 0 mm 2 mps 531 mmHg 34%
    11:00 +18°C° 0 mm 2 mps 531 mmHg 34%
    12:00 +19°C° 0 mm 2 mps 531 mmHg 30%
    13:00 +18°C° 0 mm 2 mps 530 mmHg 34%
    14:00 +18°C° 0 mm 2 mps 530 mmHg 37%
    15:00 +17°C° 0 mm 2 mps 529 mmHg 41%
    16:00 +14°C° 0 mm 2 mps 528 mmHg 54%
    17:00 +12°C° 0 mm 2 mps 526 mmHg 67%
    18:00 +9°C° 0 mm 1 mps 525 mmHg 80%
    19:00 +9°C° 0 mm 1 mps 525 mmHg 80%
    20:00 +8°C° 0 mm 1 mps 525 mmHg 79%
    21:00 +8°C° 0 mm 1 mps 526 mmHg 79%
    22:00 +8°C° 0 mm 1 mps 526 mmHg 78%
    23:00 +8°C° 0 mm 1 mps 526 mmHg 76%

    Tomorrow, 20 October, Friday

    Time Temperature Precipitation Wind Pressure Humidity
    00:00 +7°C° 0 mm 2 mps 526 mmHg 74%
    01:00 +6°C° 0 mm 2 mps 526 mmHg 73%
    02:00 +6°C° 0 mm 2 mps 525 mmHg 71%
    03:00 +6°C° 0 mm 2 mps 525 mmHg 69%
    04:00 +6°C° 0 mm 2 mps 525 mmHg 67%
    05:00 +6°C° 0 mm 2 mps 525 mmHg 65%
    06:00 +6°C° 0 mm 2 mps 525 mmHg 63%
    07:00 +9°C° 0 mm 2 mps 527 mmHg 54%
    08:00 +13°C° 0 mm 1 mps 529 mmHg 45%
    09:00 +16°C° 0 mm 1 mps 531 mmHg 37%
    10:00 +16°C° 0 mm 2 mps 531 mmHg 38%
    11:00 +16°C° 0 mm 2 mps 530 mmHg 39%
    12:00 +16°C° 0 mm 3 mps 530 mmHg 40%
    13:00 +15°C° 0.2 mm 2 mps 529 mmHg 50%
    14:00 +13°C° 0.2 mm 2 mps 527 mmHg 60%
    15:00 +12°C° 0.2 mm 2 mps 526 mmHg 69%
    16:00 +10°C° 0.5 mm 2 mps 526 mmHg 76%
    17:00 +10°C° 0.5 mm 1 mps 525 mmHg 83%
    18:00 +9°C° 0.5 mm 1 mps 525 mmHg 89%
    19:00 +9°C° 0.7 mm 1 mps 525 mmHg 89%
    20:00 +9°C° 0.7 mm 1 mps 525 mmHg 88%
    21:00 +9°C° 0.7 mm 1 mps 526 mmHg 87%
    22:00 +8°C° 1.8 mm 1 mps 525 mmHg 88%
    23:00 +8°C° 1.8 mm 1 mps 525 mmHg 90%

    Day after tomorrow, 21 October, Saturday

    Time Temperature Precipitation Wind Pressure Humidity
    00:00 +8°C° 1.8 mm 1 mps 525 mmHg 91%
    01:00 +8°C° 2.8 mm 1 mps 525 mmHg 92%
    02:00 +8°C° 2.8 mm 1 mps 524 mmHg 92%
    03:00 +8°C° 2.8 mm 1 mps 524 mmHg 93%
    04:00 +8°C° 3 mm 1 mps 524 mmHg 93%
    05:00 +8°C° 3 mm 1 mps 524 mmHg 94%
    06:00 +8°C° 3 mm 1 mps 524 mmHg 94%
    07:00 +8°C° 2 mm 1 mps 524 mmHg 93%
    08:00 +9°C° 2 mm 1 mps 525 mmHg 93%
    09:00 +9°C° 2 mm 1 mps 525 mmHg 92%
    10:00 +9°C° 1.9 mm 1 mps 525 mmHg 93%
    11:00 +9°C° 1.9 mm 1 mps 525 mmHg 93%
    12:00 +9°C° 1.9 mm 1 mps 524 mmHg 94%
    13:00 +10°C° 1.4 mm 1 mps 524 mmHg 94%
    14:00 +10°C° 1.4 mm 1 mps 523 mmHg 93%
    15:00 +10°C° 1.4 mm 1 mps 523 mmHg 93%
    16:00 +9°C° 0.5 mm 1 mps 523 mmHg 93%
    17:00 +9°C° 0.5 mm 1 mps 523 mmHg 93%
    18:00 +9°C° 0.5 mm 1 mps 523 mmHg 92%
    19:00 +9°C° 0.2 mm 1 mps 523 mmHg 91%
    20:00 +8°C° 0.2 mm 1 mps 523 mmHg 90%
    21:00 +8°C° 0.2 mm 1 mps 523 mmHg 89%
    22:00 +8°C° 0.1 mm 1 mps 523 mmHg 88%
    23:00 +8°C° 0.1 mm 1 mps 523 mmHg 87%

    22 October, Sunday

    Time Temperature Precipitation Wind Pressure Humidity
    00:00 +8°C° 0.1 mm 1 mps 523 mmHg 86%
    01:00 +8°C° 0 mm 1 mps 523 mmHg 86%
    02:00 +8°C° 0 mm 1 mps 522 mmHg 85%
    03:00 +8°C° 0 mm 1 mps 522 mmHg 85%
    04:00 +7°C° 0 mm 1 mps 522 mmHg 84%
    05:00 +7°C° 0 mm 1 mps 522 mmHg 84%
    06:00 +6°C° 0 mm 2 mps 522 mmHg 83%
    07:00 +9°C° 0 mm 1 mps 524 mmHg 78%
    08:00 +12°C° 0 mm 1 mps 526 mmHg 73%
    09:00 +14°C° 0 mm 1 mps 527 mmHg 68%
    10:00 +14°C° 0 mm 1 mps 527 mmHg 70%
    11:00 +14°C° 0 mm 2 mps 527 mmHg 72%
    12:00 +14°C° 0 mm 2 mps 527 mmHg 74%
    13:00 +13°C° 0.1 mm 2 mps 526 mmHg 78%
    14:00 +13°C° 0.1 mm 2 mps 525 mmHg 82%
    15:00 +12°C° 0.1 mm 2 mps 524 mmHg 87%
    16:00 +11°C° 0.1 mm 1 mps 524 mmHg 90%
    17:00 +10°C° 0.1 mm 1 mps 524 mmHg 93%
    18:00 +9°C° 0.1 mm 1 mps 523 mmHg 96%
    19:00 +9°C° 0 mm 1 mps 524 mmHg 96%
    20:00 +9°C° 0 mm 1 mps 524 mmHg 96%
    21:00 +7°C° 0 mm 0 mps 524 mmHg 96%
    22:00 +7°C° 0 mm 0 mps 524 mmHg 96%
    23:00 +7°C° 0 mm 0 mps 524 mmHg 95%

    23 October, Monday

    Time Temperature Precipitation Wind Pressure Humidity
    00:00 +7°C° 0 mm 0 mps 524 mmHg 94%
    01:00 +8°C° 0 mm 1 mps 524 mmHg 93%
    02:00 +7°C° 0 mm 1 mps 523 mmHg 93%
    03:00 +7°C° 0 mm 1 mps 523 mmHg 92%
    04:00 +7°C° 0 mm 1 mps 523 mmHg 90%
    05:00 +6°C° 0 mm 1 mps 523 mmHg 89%
    06:00 +6°C° 0 mm 1 mps 523 mmHg 88%
    07:00 +8°C° 0 mm 1 mps 525 mmHg 81%
    08:00 +10°C° 0 mm 1 mps 526 mmHg 74%
    09:00 +13°C° 0 mm 1 mps 528 mmHg 67%
    10:00 +13°C° 0 mm 2 mps 528 mmHg 66%
    11:00 +14°C° 0 mm 2 mps 528 mmHg 65%
    12:00 +14°C° 0 mm 2 mps 528 mmHg 64%
    13:00 +14°C° 0.1 mm 2 mps 527 mmHg 67%
    14:00 +13°C° 0.1 mm 2 mps 526 mmHg 71%
    15:00 +12°C° 0.1 mm 2 mps 525 mmHg 74%
    16:00 +10°C° 0.1 mm 2 mps 525 mmHg 81%
    17:00 +10°C° 0.1 mm 1 mps 525 mmHg 88%
    18:00 +8°C° 0.1 mm 1 mps 524 mmHg 95%
    19:00 +8°C° 0 mm 1 mps 524 mmHg 94%
    20:00 +8°C° 0 mm 1 mps 525 mmHg 93%
    21:00 +7°C° 0 mm 1 mps 525 mmHg 93%
    22:00 +7°C° 0 mm 1 mps 525 mmHg 91%
    23:00 +6°C° 0 mm 1 mps 524 mmHg 89%

    24 October, Tuesday

    Time Temperature Precipitation Wind Pressure Humidity
    00:00 +6°C° 0 mm 1 mps 524 mmHg 88%
    01:00 +6°C° 0 mm 1 mps 524 mmHg 86%
    02:00 +5°C° 0 mm 1 mps 524 mmHg 84%
    03:00 +5°C° 0 mm 1 mps 523 mmHg 81%
    04:00 +4°C° 0 mm 2 mps 523 mmHg 80%
    05:00 +3°C° 0 mm 2 mps 523 mmHg 78%
    06:00 +3°C° 0 mm 2 mps 523 mmHg 77%
    07:00 +6°C° 0 mm 2 mps 525 mmHg 68%
    08:00 +8°C° 0 mm 2 mps 527 mmHg 59%
    09:00 +12°C° 0 mm 2 mps 529 mmHg 51%
    10:00 +12°C° 0 mm 2 mps 529 mmHg 50%
    11:00 +13°C° 0 mm 2 mps 529 mmHg 49%
    12:00 +13°C° 0 mm 3 mps 529 mmHg 47%
    13:00 +12°C° 0 mm 3 mps 528 mmHg 52%
    14:00 +12°C° 0 mm 3 mps 527 mmHg 57%
    15:00 +11°C° 0 mm 3 mps 526 mmHg 62%
    16:00 +9°C° 0.1 mm 2 mps 526 mmHg 72%
    17:00 +7°C° 0.1 mm 2 mps 525 mmHg 82%
    18:00 +7°C° 0.1 mm 1 mps 524 mmHg 92%
    19:00 +6°C° 0.1 mm 1 mps 524 mmHg 91%
    20:00 +6°C° 0.1 mm 1 mps 525 mmHg 90%
    21:00 +6°C° 0.1 mm 1 mps 525 mmHg 89%
    22:00 +5°C° 0 mm 1 mps 524 mmHg 87%
    23:00 +5°C° 0 mm 1 mps 524 mmHg 85%
    Show more